TimeAKDT,TemperatureF,Dew PointF,Humidity,Sea Level PressureIn,VisibilityMPH,Wind Direction,Wind SpeedMPH,Gust SpeedMPH,PrecipitationIn,Events,Conditions,WindDirDegrees,DateUTC
12:53 AM,73.0,48.9,42,29.61,10.0,North,9.2,-,N/A,,Scattered Clouds,360,2013-06-25 08:53:00
1:53 AM,72.0,48.9,44,29.62,10.0,North,8.1,-,N/A,,Scattered Clouds,350,2013-06-25 09:53:00
2:53 AM,72.0,50.0,46,29.62,10.0,North,11.5,-,N/A,,Scattered Clouds,350,2013-06-25 10:53:00
3:53 AM,71.1,50.0,47,29.63,10.0,North,9.2,-,N/A,,Scattered Clouds,350,2013-06-25 11:53:00
4:53 AM,70.0,50.0,49,29.63,10.0,North,9.2,-,N/A,,Scattered Clouds,350,2013-06-25 12:53:00
5:53 AM,71.1,51.1,49,29.64,10.0,North,10.4,-,N/A,,Scattered Clouds,360,2013-06-25 13:53:00
6:53 AM,72.0,54.0,53,29.65,10.0,NE,6.9,-,N/A,,Partly Cloudy,40,2013-06-25 14:53:00
7:53 AM,75.0,54.0,48,29.65,10.0,Calm,Calm,-,N/A,,Partly Cloudy,0,2013-06-25 15:53:00
8:53 AM,78.1,54.0,43,29.65,10.0,NE,3.5,-,N/A,,Partly Cloudy,50,2013-06-25 16:53:00
9:53 AM,79.0,52.0,39,29.65,10.0,Variable,5.8,-,N/A,,Partly Cloudy,0,2013-06-25 17:53:00
10:53 AM,82.9,52.0,34,29.64,10.0,Variable,3.5,-,N/A,,Partly Cloudy,0,2013-06-25 18:53:00
11:53 AM,84.9,50.0,30,29.63,10.0,ENE,5.8,-,N/A,,Partly Cloudy,60,2013-06-25 19:53:00
12:53 PM,87.1,48.9,27,29.62,10.0,Calm,Calm,-,N/A,,Partly Cloudy,0,2013-06-25 20:53:00
1:53 PM,88.0,46.0,23,29.61,10.0,Calm,Calm,-,N/A,,Partly Cloudy,0,2013-06-25 21:53:00
2:53 PM,91.0,48.9,23,29.60,10.0,ENE,8.1,-,N/A,,Scattered Clouds,60,2013-06-25 22:53:00
3:53 PM,91.0,50.0,24,29.59,10.0,NE,11.5,-,N/A,,Scattered Clouds,40,2013-06-25 23:53:00
4:53 PM,90.0,52.0,27,29.59,10.0,NE,17.3,-,N/A,,Mostly Cloudy,50,2013-06-26 00:53:00
5:53 PM,89.1,53.1,29,29.58,10.0,ENE,11.5,-,N/A,,Mostly Cloudy,60,2013-06-26 01:53:00
6:53 PM,84.9,53.1,33,29.59,10.0,NE,17.3,-,N/A,,Mostly Cloudy,40,2013-06-26 02:53:00
7:53 PM,84.0,53.1,34,29.59,10.0,NE,12.7,-,N/A,,Mostly Cloudy,40,2013-06-26 03:53:00
8:53 PM,82.9,51.1,33,29.60,10.0,NE,12.7,-,N/A,,Mostly Cloudy,40,2013-06-26 04:53:00
9:53 PM,81.0,51.1,35,29.61,10.0,NNE,15.0,-,N/A,,Mostly Cloudy,30,2013-06-26 05:53:00
10:53 PM,79.0,51.1,38,29.63,10.0,NNE,12.7,-,N/A,,Mostly Cloudy,20,2013-06-26 06:53:00
11:53 PM,75.9,51.1,42,29.63,10.0,NNE,10.4,-,N/A,,Mostly Cloudy,20,2013-06-26 07:53:00